Retour au catalogue

FLOCK 4H 33

ActifScienceSSO
NORAD 66736·PAYLOAD·🇺🇸 United States

Lancé Nov 28, 2025 depuis Vandenberg Space Force Base

Loading…

Prochains Passages (prochaines 24 heures)

TLE

FraisSource: CelesTrak SupGP

Époque: Sep 14, 2026, 06:45 UTC

1 66736C 25276BY  26257.28140046  .00003497  00000+0  15441-3 0  2574
2 66736  97.4148 329.8888 0002166  32.1065  75.4142 15.21811457    10

Suivez FLOCK 4H 33 en temps réel avec AllMySat

Download on the App Store